GW6491 Weather Reports


Display with metric or nautical units.
time (UTC)temp
F
wind
direction
speed
MPH
gust
MPH
rain 1hr
in
rain 24hr
in
rain mn
in
humidity
%
barometer
mb
20260504194414 80 0 9.0 17.0 0.00 1.67 1.67 100 1009.6
20260504193910 80 0 8.0 17.0 0.00 1.67 1.67 100 1010.0
20260504193408 80 0 9.0 17.0 0.00 1.67 1.67 100 1010.0
20260504192907 80 0 7.0 19.0 0.00 1.67 1.67 100 1010.0
20260504192403 80 0 9.0 14.0 0.00 1.66 1.66 100 1009.6
20260504191902 80 0 8.0 14.0 0.00 1.66 1.66 100 1009.6
20260504191400 80 0 10.0 15.0 0.00 1.66 1.66 100 1009.6
20260504190855 80 0 11.0 19.0 0.00 1.66 1.66 100 1009.6
20260504190351 80 0 8.0 18.0 0.00 1.66 1.66 100 1009.6
20260504185848 80 0 8.0 16.0 0.00 1.66 1.66 100 1009.6
20260504185345 80 0 5.0 13.0 0.00 1.65 1.65 100 1009.6
20260504184840 80 0 7.0 14.0 0.00 1.65 1.65 100 1009.6
20260504184337 80 0 9.0 19.0 0.00 1.65 1.65 100 1009.6
20260504183833 80 0 8.0 18.0 0.00 1.65 1.65 100 1009.3
20260504183330 80 0 7.0 14.0 0.00 1.65 1.65 100 1009.3
20260504182828 80 0 8.0 17.0 0.00 1.64 1.64 100 1009.6
20260504182325 80 0 12.0 21.0 0.00 1.64 1.64 100 1009.6
20260504181822 80 0 6.0 11.0 0.00 1.64 1.64 100 1009.6
20260504181319 80 0 7.0 12.0 0.47 1.62 1.62 100 1009.6
20260504180818 80 0 9.0 16.0 0.94 1.60 1.60 100 1009.6
20260504180316 80 0 9.0 18.0 0.47 1.57 1.57 100 1009.6
20260504175814 80 0 8.0 21.0 0.94 1.55 1.55 100 1010.0
20260504175311 80 0 5.0 11.0 1.89 1.48 1.48 100 1010.0
20260504174809 80 0 8.0 15.0 3.78 1.36 1.36 100 1010.0
20260504174306 80 0 8.0 16.0 1.42 1.30 1.30 100 1009.6
20260504173803 80 0 7.0 15.0 0.94 1.25 1.25 100 1009.6
20260504173259 80 0 8.0 15.0 0.94 1.21 1.21 100 1009.6
20260504172756 80 0 6.0 16.0 1.42 1.14 1.14 100 1009.6
20260504172253 80 0 10.0 17.0 3.78 1.04 1.04 100 1009.6
20260504171749 80 0 6.0 12.0 4.72 0.80 0.80 100 1009.6
20260504171246 80 0 7.0 13.0 4.72 0.66 0.66 100 1009.3
20260504170743 80 0 6.0 13.0 0.47 0.61 0.61 100 1009.0
20260504170240 80 0 5.0 11.0 0.47 0.59 0.59 100 1009.0
20260504160159 80 0 7.0 14.0 0.47 0.15 0.15 100 1009.3
20260504151126 80 0 10.0 17.0 0.00 0.01 0.01 100 1009.6
20260504150624 80 0 11.0 19.0 0.00 0.00 0.00 100 1010.0
20260504150121 80 0 9.0 17.0 0.00 0.00 0.00 100 1009.6
20260504141049 80 0 5.0 11.0 0.00 0.00 0.00 100 1010.3
20260504140546 80 0 7.0 15.0 0.00 0.00 0.00 100 1010.3
20260504130510 80 0 10.0 19.0 0.00 0.02 0.02 100 1011.3
20260504110357 80 0 6.0 10.0 0.00 0.02 0.02 100 1010.7
20260504100315 80 0 4.0 8.0 0.00 0.02 0.02 100 1010.3
20260504081708 80 0 2.0 2.0 0.00 0.02 0.02 100 1009.0
20260504081204 80 0 0.0 2.0 0.00 0.02 0.02 100 1009.0
20260504080701 80 0 1.0 2.0 0.00 0.02 0.02 100 1009.0
20260504080157 80 0 1.0 2.0 0.00 0.02 0.02 100 1009.0
20260504070125 80 0 4.0 9.0 0.00 0.02 0.02 100 1008.0
20260504050514 80 0 3.0 7.0 0.00 0.02 0.02 100 1008.0
20260504050011 80 0 3.0 5.0 0.00 0.02 0.02 100 1008.0
20260504045508 80 0 4.0 7.0 0.00 0.02 0.02 100 1008.0
20260504045003 80 0 3.0 9.0 0.00 0.02 0.02 100 1008.0
20260504044501 80 0 4.0 10.0 0.00 0.02 0.02 100 1008.0
20260504043957 80 0 2.0 5.0 0.00 0.02 0.02 100 1008.0
20260504043454 80 0 3.0 7.0 0.00 0.02 0.02 100 1008.0
20260504042952 80 0 3.0 8.0 0.00 0.02 0.02 100 1008.0
20260504042448 80 0 2.0 6.0 0.00 0.02 0.02 100 1008.0
20260504041945 80 0 3.0 9.0 0.00 0.02 0.02 100 1008.0
20260504041441 80 0 4.0 6.0 0.00 0.02 0.02 100 1008.0
20260504040937 80 0 4.0 8.0 0.00 0.02 0.02 100 1008.3
20260504040435 80 0 3.0 8.0 0.00 0.02 0.02 100 1008.3
20260504035931 80 0 6.0 16.0 0.00 0.02 0.02 100 1008.3
20260504035429 80 0 5.0 12.0 0.00 0.02 0.02 100 1008.3
20260504034925 80 0 5.0 12.0 0.00 0.02 0.02 100 1008.3
20260504034423 80 0 5.0 11.0 0.00 0.02 0.02 100 1008.3
20260504033920 80 0 6.0 13.0 0.00 0.02 0.02 100 1008.3
20260504033417 80 0 4.0 10.0 0.00 0.02 0.02 100 1008.3
20260504032914 80 0 4.0 13.0 0.00 0.02 0.02 100 1008.6
20260504032411 80 0 4.0 7.0 0.00 0.02 0.02 100 1008.6
20260504031908 80 0 5.0 10.0 0.00 0.02 0.02 100 1009.0
20260504031405 80 0 6.0 10.0 0.00 0.02 0.02 100 1009.0
20260504030901 80 0 4.0 11.0 0.00 0.02 0.02 100 1009.0
20260504030359 80 0 5.0 9.0 0.00 0.02 0.02 100 1009.0
20260504025854 80 0 5.0 10.0 0.00 0.02 0.02 100 1009.0
20260504025352 80 0 5.0 9.0 0.00 0.02 0.02 100 1009.0
20260504024848 80 0 6.0 13.0 0.00 0.02 0.02 100 1009.0
20260504024345 80 0 5.0 9.0 0.00 0.02 0.02 100 1009.0
20260504023842 80 0 2.0 6.0 0.00 0.02 0.02 100 1009.0
20260504023339 80 0 5.0 10.0 0.00 0.02 0.02 100 1009.0
20260504022834 80 0 5.0 9.0 0.00 0.02 0.02 100 1009.0
20260504022331 80 0 5.0 11.0 0.00 0.02 0.02 100 1009.0
20260504021828 80 0 5.0 9.0 0.00 0.02 0.02 100 1009.0
20260504021325 80 0 6.0 12.0 0.00 0.02 0.02 100 1009.0
20260504020822 80 0 7.0 13.0 0.00 0.02 0.02 100 1009.0
20260504020319 80 0 5.0 14.0 0.00 0.02 0.02 100 1009.0
20260504015815 80 0 5.0 11.0 0.00 0.02 0.02 100 1009.3
20260504015311 80 0 6.0 13.0 0.00 0.02 0.02 100 1009.3
20260504014807 80 0 6.0 10.0 0.00 0.02 0.02 100 1009.3
20260504014303 80 0 4.0 8.0 0.00 0.02 0.02 100 1009.3
20260504013801 80 0 4.0 11.0 0.00 0.02 0.02 100 1009.3
20260504013259 80 0 5.0 9.0 0.00 0.02 0.02 100 1009.6
20260504012755 80 0 5.0 11.0 0.00 0.02 0.02 100 1009.6
20260504012253 80 0 4.0 7.0 0.00 0.02 0.02 100 1009.6
20260504011750 80 0 4.0 7.0 0.00 0.02 0.02 100 1010.0
20260504011246 80 0 4.0 8.0 0.00 0.02 0.02 100 1010.3
20260504010743 80 0 4.0 7.0 0.00 0.02 0.02 100 1010.3
20260504010238 80 0 3.0 9.0 0.00 0.02 0.02 100 1010.7
20260504005735 80 0 3.0 7.0 0.00 0.02 0.02 100 1010.7
20260504005232 80 0 3.0 5.0 0.00 0.02 0.02 100 1010.7
20260504004730 80 0 3.0 5.0 0.00 0.02 0.02 100 1010.7
20260504004227 80 0 3.0 5.0 0.00 0.02 0.02 100 1010.7
20260504003723 80 0 5.0 9.0 0.00 0.02 0.02 100 1010.7
20260504003220 80 0 4.0 7.0 0.00 0.02 0.02 100 1010.7
20260504002717 80 0 4.0 7.0 0.00 0.02 0.02 100 1010.7
20260504002214 80 0 4.0 7.0 0.00 0.02 0.02 100 1010.7
20260504001712 80 0 4.0 7.0 0.00 0.02 0.02 100 1011.0
20260504001209 80 0 2.0 7.0 0.00 0.02 0.02 100 1011.0
20260504000705 80 0 0.0 0.0 0.00 0.02 0.02 100 1011.0
20260504000204 80 0 0.0 0.0 0.00 0.02 0.02 100 1011.0
20260503235701 80 0 0.0 0.0 0.00 0.02 0.02 100 1011.0
20260503235157 80 0 0.0 0.0 0.00 0.02 0.02 100 1011.0
20260503234655 80 0 1.0 3.0 0.00 0.02 0.02 100 1011.0
20260503234153 80 0 0.0 2.0 0.00 0.02 0.02 100 1011.0
20260503233649 80 0 3.0 4.0 0.00 0.02 0.02 100 1011.0
20260503233145 80 0 0.0 2.0 0.00 0.02 0.02 100 1011.0
20260503232642 80 0 2.0 3.0 0.00 0.02 0.02 100 1011.0
20260503232140 80 0 2.0 3.0 0.00 0.02 0.02 100 1011.0
20260503231638 80 0 2.0 4.0 0.00 0.02 0.02 100 1011.0
20260503231134 80 0 3.0 5.0 0.47 0.01 0.01 100 1011.0
20260503230631 80 0 4.0 6.0 0.00 0.01 0.01 100 1011.0
20260503230128 80 0 3.0 4.0 0.00 0.00 0.00 100 1011.3
20260503225625 80 0 4.0 5.0 0.00 0.00 0.00 100 1011.0
20260503225125 80 0 4.0 6.0 0.00 0.00 0.00 100 1011.0
20260503224622 80 0 5.0 6.0 0.00 0.00 0.00 100 1011.0
20260503224120 80 0 7.0 9.0 0.00 0.00 0.00 100 1011.0
20260503223618 80 0 5.0 7.0 0.00 0.00 0.00 100 1011.0
20260503223114 80 0 4.0 7.0 0.00 0.00 0.00 100 1011.0
20260503222612 80 0 4.0 7.0 0.00 0.00 0.00 100 1011.0
20260503222109 80 0 2.0 5.0 0.00 0.00 0.00 100 1011.0
20260503221607 80 0 1.0 3.0 0.00 0.00 0.00 100 1010.7
20260503221105 80 0 0.0 0.0 0.00 0.00 0.00 100 1010.7
20260503220601 80 0 0.0 0.0 0.00 0.00 0.00 100 1010.7
20260503220058 80 0 0.0 0.0 0.00 0.00 0.00 100 1010.7
20260503215555 80 0 0.0 0.0 0.00 0.00 0.00 100 1010.7
20260503215052 80 0 0.0 0.0 0.00 0.00 0.00 100 1010.7
20260503214550 80 0 0.0 0.0 0.00 0.00 0.00 100 1010.7
20260503214046 80 0 0.0 0.0 0.00 0.00 0.00 100 1010.3
20260503213544 80 0 0.0 0.0 0.00 0.00 0.00 100 1010.3
20260503213041 80 0 0.0 0.0 0.00 0.00 0.00 100 1010.3
20260503212538 80 0 0.0 0.0 0.00 0.00 0.00 100 1010.3
20260503212036 80 0 0.0 0.0 0.00 0.00 0.00 100 1010.0
20260503211533 80 0 0.0 0.0 0.00 0.00 0.00 100 1010.0
20260503211028 80 0 0.0 0.0 0.00 0.00 0.00 100 1010.0
20260503210525 80 0 0.0 0.0 0.00 0.00 0.00 100 1010.0
20260503210021 80 0 0.0 0.0 0.00 0.00 0.00 100 1009.6
20260503205518 80 0 0.0 0.0 0.00 0.00 0.00 100 1009.6
20260503205014 80 0 0.0 0.0 0.00 0.00 0.00 100 1009.6
20260503204511 80 0 1.0 3.0 0.00 0.00 0.00 100 1009.6
20260503204008 80 0 2.0 5.0 0.00 0.00 0.00 100 1009.6
20260503203505 80 0 3.0 4.0 0.00 0.00 0.00 100 1009.6
20260503203002 80 0 4.0 6.0 0.00 0.00 0.00 100 1009.6
20260503202500 80 0 3.0 6.0 0.00 0.00 0.00 100 1009.3
20260503201958 80 0 1.0 4.0 0.00 0.00 0.00 100 1009.3
20260503201456 80 0 0.0 0.0 0.00 0.00 0.00 100 1009.3
20260503200953 80 0 0.0 0.0 0.00 0.00 0.00 100 1009.3
20260503200449 80 0 0.0 0.0 0.00 0.00 0.00 100 1009.3
20260503195946 80 0 0.0 1.0 0.00 0.00 0.00 100 1009.3
20260503195443 80 0 0.0 0.0 0.00 0.00 0.00 100 1009.3
20260503194939 80 0 0.0 0.0 0.00 0.00 0.00 100 1009.3